Regional Weather Roundup
Issued by NWS

Home | Current Version | Previous Version | Text Only | Print | Product List | Glossary On
Versions: 1 2 3 4 5 6 7 8 9 10 11 12 13 14 15 16 17 18 19 20 21 22 23 24 25 26 27 28 29 30 31 32 33 34 35 36 37 38 39 40 41 42 43 44 45 46 47 48 49 50
000
ASUS43 KMPX 310510
RWRMN
WEATHER ROUNDUP FOR MINNESOTA
NATIONAL WEATHER SERVICE TWIN CITIES/CHANHASSEN MN
1200 AM CDT WED AUG 31 2016


NOTE: "FAIR" INDICATES FEW OR NO CLOUDS BELOW 12,000 FEET WITH NO
SIGNIFICANT WEATHER AND/OR OBSTRUCTIONS TO VISIBILITY. N/A MEANS
CURRENT SKY AND/OR WEATHER CONDITIONS ARE NOT AVAILABLE.

MNZ060>063-068>070-310600-
   Twin Cities Metro

CITY           SKY/WX    TMP DP  RH WIND       PRES   REMARKS
TWIN CITIES    CLEAR     64  57  78 NW3       30.17R
ST PAUL        CLEAR     62  56  80 CALM      30.17R
CRYSTAL        CLEAR     61  54  77 NW3       30.16S
BLAINE         CLEAR     64  55  72 N5        30.18R
LAKEVILLE      CLEAR     57  57 100 W3        30.18R
EDEN PRAIRIE   CLEAR     65  57  75 NW6       30.17R
LAKEVILLE      CLEAR     57  57 100 W3        30.18R
SOUTH ST PAUL  CLEAR     63  56  77 CALM      30.17R
LAKE ELMO      FAIR      59  57  94 CALM      30.18S
$$
MNZ001>005-007-008-013>017-022>024-027-028-310600-
   Northwest Minnesota

CITY           SKY/WX    TMP DP  RH WIND       PRES   REMARKS
BEMIDJI        CLEAR     51  50  95 W3        30.22S
HALLOCK        PTCLDY    55  48  76 CALM      30.23R
ROSEAU         PTCLDY    54  48  82 CALM      30.23R
WARROAD        PTCLDY    54  48  82 N3        30.23S
THIEF RVR FALL PTCLDY    58  52  80 CALM      30.23S
CROOKSTON      CLEAR     61  54  77 E3        30.22S
FOSSTON        CLEAR     52  48  87 CALM      30.23S
DETROIT LAKES  CLEAR     61  59  94 CALM      30.24R
MOORHEAD       CLEAR     61  54  77 CALM      30.21S
MAHNOMEN       FAIR      56  55  94 CALM      30.22S
$$
MNZ006-009>011-018-025>026-310600-
   North Central Minnesota

CITY           SKY/WX    TMP DP  RH WIND       PRES   REMARKS
BAUDETTE       PTCLDY    51  50  96 W5        30.21S
FLAG ISLAND    CLEAR     63  52  67 N5        30.20S
INTL FALLS     PTCLDY    44  43  96 CALM      30.20R
WASKISH        CLEAR     52  50  93 CALM      30.22S
BIG FORK       CLEAR     48  46  93 CALM      30.22R
LONGVILLE      CLEAR     54  54 100 CALM      30.21S
GRAND RAPIDS   CLEAR     53  52  96 CALM      30.23R
CRANE LAKE     CLOUDY    46  46 100 CALM      30.21R
ORR            CLEAR     50  46  87 CALM      30.18S
COOK           CLEAR     48  46  93 CALM      30.20F
WALKER         FAIR      54  53  96 W3        30.22S
$$
MNZ012-019>021-037-310600-
   Northeast Minnesota

CITY           SKY/WX    TMP DP  RH WIND       PRES   REMARKS
DULUTH         CLEAR     58  51  78 NW7       30.18S
ELY            CLEAR     52  48  87 CALM      30.19R
HIBBING        CLEAR     46  46 100 CALM      30.20S
EVELETH        CLEAR     55  48  79 CALM      30.20S
DULUTH HARBOR  CLEAR     66  55  68 N7        30.17S
TWO HARBORS    CLEAR     59  52  77 CALM      30.15S
SILVER BAY     CLEAR     57  50  77 NW3       30.15F
GRAND MARAIS     N/A     60  51  72 NW7       30.14R
G MARAIS ARPRT CLEAR     52  46  82 W3        30.18R
$$
MNZ029>031-032-039>041-046>048-054>057-064-310600-
   West Central Minnesota

CITY           SKY/WX    TMP DP  RH WIND       PRES   REMARKS
FERGUS FALLS   CLEAR     63  55  77 NE3       30.22F
WHEATON        CLEAR     61  55  82 CALM      30.22S
MORRIS         CLOUDY    61  55  82 NE3       30.20S
ALEXANDRIA     CLEAR     63  56  78 N6        30.23S
ELBOW LAKE     FAIR      63  57  81 CALM      30.21S
WADENA         CLEAR     57  55  94 CALM      30.22S
GLENWOOD       CLEAR     63  55  77 N5        30.22S
APPLETON       CLOUDY    61  57  88 CALM      30.19S
BENSON         CLEAR     59  55  88 CALM      30.20S
ORTONVILLE     CLOUDY    64  57  77 CALM      30.20S
MADISON        PTCLDY    63  61  94 CALM      30.20S
WILLMAR        FAIR      63  59  88 CALM      30.21S
$$
MNZ033>034-036-042>043-049>051-058-059-310600-
   Central Minnesota

CITY           SKY/WX    TMP DP  RH WIND       PRES   REMARKS
ST CLOUD       CLEAR     58  58 100 CALM      30.20R
SAUK CENTRE    FAIR      58  56  93 CALM      30.21S
PAYNESVILLE    CLEAR     55  55 100 W3        30.21S
AITKIN         HAZE      54  48  82 CALM      30.19F VSB 3/4
PINE RIVER     CLEAR     54  54 100 CALM      30.24S
BRAINERD       CLEAR     54  54 100 CALM      30.21S
STAPLES        CLEAR     57  55  94 CALM      30.22S
LONG PRAIRIE   FAIR      59  55  88 CALM      30.22S
LITTLE FALLS   CLEAR     54  52  94 CALM      30.21S
LITCHFIELD     CLEAR     64  61  88 NW3       30.20R
BUFFALO        CLEAR     60  57  88 CALM      30.20R
MAPLE LAKE     CLEAR     59  58  97 CALM      30.21R
HUTCHINSON     PTCLDY    61  59  95 CALM      30.20R
$$
MNZ037-044-045-052-053-310600-
   East Central Minnesota

CITY           SKY/WX    TMP DP  RH WIND       PRES   REMARKS
PRINCETON      CLEAR     57  55  94 CALM      30.19S
MORA           CLEAR     54  52  94 CALM      30.21R FOG
CAMBRIDGE      CLEAR     59  52  77 CALM      30.17R
RUSH CITY      PTCLDY    56  54  93 CALM      30.18S
MOOSE LAKE     CLEAR     54  52  94 NE3       30.18R
HINCKLEY       FAIR      54  54 100 CALM      30.18S
CLOQUET        CLEAR     55  48  76 NW3       30.19S
MCGREGOR       CLEAR     54  52  94 CALM      30.21R
$$
MNZ071>073-080-081-089-090-097-098-310600-
   Southwest Minnesota

CITY           SKY/WX    TMP DP  RH WIND       PRES   REMARKS
MONTEVIDEO     CLOUDY    63  55  77 CALM      30.21S
GRANITE FALLS  CLEAR     61  58  91 NW3       30.21S
CANBY          PTCLDY    60  57  91 CALM      30.21S
MARSHALL       PTCLDY    61  58  90 W3        30.20F
REDWOOD FALLS  CLEAR     65  58  78 CALM      30.18F
OLIVIA         CLOUDY    61  55  82 N5        30.18F
WINDOM         CLEAR     61  57  88 CALM      30.20S
WORTHINGTON    CLEAR     60  58  92 CALM      30.21S
JACKSON        CLOUDY    59  55  88 CALM      30.21R
TRACY          PTCLDY    63  60  91 CALM      30.21S
SLAYTON        CLEAR     59  57  94 CALM      30.23R
$$
MNZ065>067-074>077-082>085-091>093-310600-
   South Central Minnesota

CITY           SKY/WX    TMP DP  RH WIND       PRES   REMARKS
NEW ULM        CLEAR     61  59  94 CALM      30.18F
ST JAMES       CLEAR     61  57  88 CALM      30.20S
FAIRMONT       CLOUDY    61  59  93 N5        30.19S
GLENCOE        CLEAR     61  61  99 CALM      30.18R
FARIBAULT      CLEAR     57  55  94 CALM      30.18S
OWATONNA       CLEAR     57  55  94 CALM      30.18S
WASECA         CLEAR     59  54  82 N3        30.19S
ALBERT LEA     CLOUDY    61  57  88 CALM      30.18S
$$
MNZ078>079-086>088-094>096-310600-
   Southeast Minnesota

CITY           SKY/WX    TMP DP  RH WIND       PRES   REMARKS
ROCHESTER      CLEAR     61  58  90 NW7       30.18S
RED WING       CLEAR     61  57  88 CALM      30.15S
STANTON        CLEAR     59  57  94 CALM      30.16S
DODGE CENTER   CLEAR     57  55  94 N5        30.18S
WINONA         CLEAR     61  59  94 NW5       30.15S
AUSTIN         CLOUDY    61  57  88 CALM      30.17S
PRESTON        PTCLDY    62  56  81 N3        30.18S
$$
ABBREVIATIONS USED IN REMARKS
   TC - TEMPERATURES IN CELSIUS
  WCI - WIND CHILL INDEX
   HX - HEAT INDEX
  VSB - VISIBILITY
$$




USA.gov is the U.S. government's official web portal to all federal, state and local government web resources and services.